Погода в Анюйске

Россия / Чукотский автономный округ     68°20′40″N   161°33′37″E
В апреле 2022 года жителям России запретили посещать сайт meteo.paraplan.net по решению Генеральной прокуратуры. Аудитория сайта уменьшилась в 10 раз. Владельцы сайта не видят смысла в поддержке погодного сервера в таких условиях. Сайт будет закрыт в октябре.
темп.,
°C
ветер,
м/с
пор.,
м/с
влажн.,
%
обл.,
%
осадки,
мм/ч
давл.,
гПа
погр.,
м
26 сентября, пн
пн2600:00−3в227853 0.0 102210
03:00−3в337776 0.0 102116
06:00−3вюв337697 0.0 102027
09:00−2в36695 0.0 1019167
12:00+2вюв44535 0.0 1018641
15:00+3вюв44485 0.0 10171081
18:00+2в335430 0.0 101627
21:00−1в456466 0.0 101642
27 сентября, вт
вт2700:00−2в446425 0.0 101546
03:00−2в45625 0.0 101554
06:00−3в446257 0.0 101447
09:00−2вюв365748 0.0 1014161
12:00+2вюв44453 0.0 1013563
15:00+3вюв33415 0.0 1012960
18:00+1в33465 0.0 101223
21:00−1в33543 0.0 101325
28 сентября, ср
ср2800:00−2в44580 0.0 101236
03:00−3в44620 0.0 101238
06:00−4в33660 0.0 101235
09:00−3в37600 0.0 1012164
12:00+2вюв45420 0.0 1012585
15:00+3вюв45360 0.0 1012949
18:00+1в33440 0.0 101229
21:00−2в45510 0.0 101345
29 сентября, чт
чт2900:00−3вюв44540 0.0 101340
03:00−3вюв44565 0.0 101241
06:00−4вюв45585 0.0 101255
09:00−3вюв47545 0.0 1012170
12:00+1юв554319 0.0 1011504
15:00+3юв55395 0.0 1010872
18:00+1ююв33505 0.0 101018
21:00−2вюв466011 0.0 100965
30 сентября, пт
пт3000:00−3вюв466021 0.0 100987
03:00−3в595995 0.0 1008121
06:00−3вюв4857100 0.0 1007128
09:00−1вюв4750100 0.0 1006246
12:00+2юв4447100 0.0 1005315
15:00+4юв464643 0.0 1005739
18:00+1юв3458100 0.0 100543
21:000юв3363100 0.0 100628